| time (UTC) | temp F | wind direction | speed MPH | gust MPH | rain 1hr in | rain 24hr in | rain mn in | humidity % | barometer mb |
| 20260901052147 | 77 | 15 | 0.0 | 0.0 | 0.00 | 0.00 | 0.00 | 98 | 1014.4 |
| 20260901051147 | 77 | 15 | 0.0 | 0.0 | 0.00 | 0.00 | 0.00 | 98 | 1014.7 |
| 20260901050146 | 77 | 15 | 0.0 | 0.0 | 0.00 | 0.00 | 0.00 | 97 | 1014.7 |
| 20260901045145 | 77 | 15 | 0.0 | 0.0 | 0.00 | 0.00 | 0.00 | 97 | 1014.7 |
| 20260901044144 | 77 | 15 | 0.0 | 0.0 | 0.00 | 0.00 | 0.00 | 97 | 1015.0 |
| 20260901043143 | 78 | 15 | 0.0 | 0.0 | 0.00 | 0.00 | 0.00 | 97 | 1015.1 |
| 20260901042142 | 78 | 15 | 0.0 | 0.0 | 0.00 | 0.00 | 0.00 | 97 | 1015.1 |
| 20260901041110 | 78 | 15 | 0.0 | 1.0 | 0.00 | 0.00 | 0.00 | 97 | 1015.1 |
| 20260901040008 | 78 | 15 | 1.0 | 1.0 | 0.00 | 0.00 | 0.00 | 97 | 1015.1 |
| 20260901035005 | 78 | 15 | 0.0 | 0.0 | 0.00 | 0.00 | 0.00 | 97 | 1015.1 |
| 20260901034004 | 78 | 15 | 0.0 | 0.0 | 0.00 | 0.00 | 0.00 | 97 | 1015.1 |
| 20260901032932 | 78 | 15 | 0.0 | 0.0 | 0.00 | 0.00 | 0.00 | 96 | 1015.1 |
| 20260901031931 | 78 | 15 | 0.0 | 0.0 | 0.00 | 0.00 | 0.00 | 96 | 1015.1 |
| 20260901030930 | 78 | 15 | 0.0 | 0.0 | 0.00 | 0.00 | 0.00 | 96 | 1015.1 |
| 20260901025930 | 79 | 15 | 0.0 | 0.0 | 0.00 | 0.00 | 0.00 | 96 | 1015.1 |
| 20260901024929 | 79 | 15 | 0.0 | 0.0 | 0.00 | 0.00 | 0.00 | 95 | 1015.1 |
| 20260901023857 | 79 | 14 | 0.0 | 0.0 | 0.00 | 0.00 | 0.00 | 95 | 1015.1 |
| 20260901022856 | 79 | 15 | 0.0 | 1.0 | 0.00 | 0.00 | 0.00 | 95 | 1015.1 |
| 20260901021855 | 79 | 15 | 0.0 | 1.0 | 0.00 | 0.00 | 0.00 | 95 | 1015.1 |
| 20260901020854 | 79 | 15 | 1.0 | 1.0 | 0.00 | 0.00 | 0.00 | 95 | 1015.1 |
| 20260901015853 | 79 | 15 | 1.0 | 1.0 | 0.00 | 0.00 | 0.00 | 95 | 1015.1 |
| 20260901014852 | 79 | 15 | 0.0 | 1.0 | 0.00 | 0.00 | 0.00 | 95 | 1015.1 |
| 20260901013852 | 79 | 15 | 1.0 | 1.0 | 0.00 | 0.00 | 0.00 | 95 | 1014.7 |
| 20260901012851 | 79 | 15 | 0.0 | 0.0 | 0.00 | 0.00 | 0.00 | 95 | 1014.4 |
| 20260901011850 | 79 | 15 | 0.0 | 0.0 | 0.00 | 0.00 | 0.00 | 95 | 1014.4 |
| 20260901010849 | 80 | 15 | 0.0 | 0.0 | 0.00 | 0.00 | 0.00 | 95 | 1014.4 |
| 20260901005848 | 80 | 15 | 0.0 | 0.0 | 0.00 | 0.00 | 0.00 | 95 | 1014.4 |
| 20260901004848 | 80 | 15 | 0.0 | 0.0 | 0.00 | 0.00 | 0.00 | 95 | 1014.0 |
| 20260901003847 | 80 | 15 | 0.0 | 0.0 | 0.00 | 0.00 | 0.00 | 95 | 1014.0 |
| 20260901002846 | 80 | 15 | 0.0 | 0.0 | 0.00 | 0.00 | 0.00 | 95 | 1014.0 |
| 20260901001846 | 80 | 15 | 0.0 | 0.0 | 0.00 | 0.00 | 0.00 | 94 | 1014.0 |
| 20260901000845 | 80 | 15 | 0.0 | 0.0 | 0.00 | 0.00 | 0.00 | 94 | 1014.0 |
| 20260831235844 | 80 | 15 | 0.0 | 0.0 | 0.00 | 0.00 | 0.00 | 94 | 1014.0 |
| 20260831234843 | 80 | 15 | 0.0 | 0.0 | 0.00 | 0.00 | 0.00 | 93 | 1014.0 |
| 20260831233843 | 79 | 15 | 0.0 | 0.0 | 0.00 | 0.00 | 0.00 | 93 | 1014.0 |
| 20260831232811 | 79 | 15 | 0.0 | 1.0 | 0.00 | 0.00 | 0.00 | 93 | 1014.0 |
| 20260831231810 | 79 | 15 | 0.0 | 1.0 | 0.00 | 0.00 | 0.00 | 93 | 1013.7 |
| 20260831230707 | 79 | 28 | 0.0 | 2.0 | 0.00 | 0.00 | 0.00 | 92 | 1013.7 |
| 20260831225706 | 80 | 46 | 0.0 | 0.0 | 0.00 | 0.00 | 0.00 | 92 | 1014.0 |
| 20260831224705 | 80 | 46 | 0.0 | 0.0 | 0.00 | 0.00 | 0.00 | 92 | 1014.0 |
| 20260831223704 | 80 | 45 | 0.0 | 1.0 | 0.00 | 0.00 | 0.00 | 91 | 1014.0 |
| 20260831222703 | 80 | 307 | 0.0 | 1.0 | 0.00 | 0.00 | 0.00 | 91 | 1014.0 |
| 20260831221600 | 80 | 284 | 0.0 | 1.0 | 0.00 | 0.00 | 0.00 | 91 | 1014.0 |
| 20260831220529 | 80 | 282 | 1.0 | 1.0 | 0.00 | 0.00 | 0.00 | 90 | 1014.3 |
| 20260831215457 | 80 | 259 | 0.0 | 1.0 | 0.00 | 0.00 | 0.00 | 90 | 1014.3 |
| 20260831214456 | 81 | 257 | 0.0 | 1.0 | 0.00 | 0.00 | 0.00 | 89 | 1014.4 |
| 20260831213353 | 82 | 281 | 1.0 | 2.0 | 0.00 | 0.00 | 0.00 | 88 | 1014.4 |
| 20260831212321 | 82 | 281 | 0.0 | 2.0 | 0.00 | 0.00 | 0.00 | 87 | 1014.4 |
| 20260831211249 | 85 | 243 | 0.0 | 2.0 | 0.00 | 0.00 | 0.00 | 82 | 1014.4 |
| 20260831210248 | 85 | 9 | 1.0 | 4.0 | 0.00 | 0.00 | 0.00 | 79 | 1014.4 |
| 20260831205247 | 86 | 50 | 2.0 | 5.0 | 0.00 | 0.00 | 0.00 | 77 | 1014.0 |
| 20260831204215 | 86 | 54 | 1.0 | 5.0 | 0.00 | 0.00 | 0.00 | 75 | 1014.0 |
| 20260831203214 | 86 | 45 | 1.0 | 5.0 | 0.00 | 0.00 | 0.00 | 76 | 1014.0 |
| 20260831202214 | 86 | 9 | 1.0 | 11.0 | 0.00 | 0.00 | 0.00 | 77 | 1014.0 |
| 20260831201142 | 87 | 44 | 2.0 | 12.0 | 0.00 | 0.00 | 0.00 | 75 | 1013.7 |
| 20260831200141 | 87 | 13 | 3.0 | 8.0 | 0.00 | 0.00 | 0.00 | 75 | 1014.0 |
| 20260831195140 | 87 | 103 | 2.0 | 6.0 | 0.00 | 0.00 | 0.00 | 74 | 1013.7 |
| 20260831194139 | 87 | 69 | 1.0 | 5.0 | 0.00 | 0.00 | 0.00 | 76 | 1013.7 |
| 20260831193138 | 86 | 131 | 1.0 | 4.0 | 0.00 | 0.00 | 0.00 | 83 | 1014.0 |
| 20260831192137 | 87 | 174 | 2.0 | 4.0 | 0.00 | 0.00 | 0.00 | 80 | 1014.0 |
| 20260831191106 | 88 | 183 | 2.0 | 5.0 | 0.00 | 0.00 | 0.00 | 79 | 1013.7 |
| 20260831190104 | 89 | 189 | 1.0 | 6.0 | 0.00 | 0.00 | 0.00 | 77 | 1014.0 |
| 20260831185103 | 89 | 57 | 3.0 | 6.0 | 0.00 | 0.00 | 0.00 | 74 | 1014.0 |
| 20260831184102 | 89 | 359 | 1.0 | 4.0 | 0.00 | 0.00 | 0.00 | 77 | 1014.0 |
| 20260831183030 | 89 | 83 | 1.0 | 5.0 | 0.00 | 0.00 | 0.00 | 76 | 1014.0 |
| 20260831182030 | 87 | 74 | 1.0 | 4.0 | 0.00 | 0.00 | 0.00 | 79 | 1014.4 |
| 20260831181029 | 86 | 79 | 1.0 | 5.0 | 0.00 | 0.00 | 0.00 | 80 | 1014.4 |
| 20260831180028 | 85 | 31 | 1.0 | 4.0 | 0.00 | 0.00 | 0.00 | 81 | 1014.4 |
| 20260831175027 | 84 | 52 | 1.0 | 5.0 | 0.00 | 0.00 | 0.00 | 82 | 1014.4 |
| 20260831174026 | 84 | 1 | 2.0 | 6.0 | 0.00 | 0.00 | 0.00 | 83 | 1014.7 |
| 20260831173025 | 84 | 38 | 2.0 | 6.0 | 0.00 | 0.00 | 0.00 | 84 | 1015.0 |
| 20260831172024 | 83 | 58 | 2.0 | 7.0 | 0.00 | 0.00 | 0.00 | 81 | 1015.4 |
| 20260831171023 | 83 | 85 | 2.0 | 8.0 | 0.00 | 0.00 | 0.00 | 80 | 1015.4 |
| 20260831170022 | 83 | 34 | 2.0 | 9.0 | 0.00 | 0.00 | 0.00 | 81 | 1015.4 |
| 20260831165022 | 84 | 24 | 5.0 | 10.0 | 0.00 | 0.00 | 0.00 | 78 | 1015.7 |
| 20260831164020 | 87 | 36 | 4.0 | 10.0 | 0.00 | 0.00 | 0.00 | 74 | 1015.7 |
| 20260831163020 | 89 | 37 | 2.0 | 3.0 | 0.00 | 0.00 | 0.00 | 71 | 1015.4 |
| 20260831161916 | 89 | 26 | 1.0 | 2.0 | 0.00 | 0.00 | 0.00 | 73 | 1015.4 |
| 20260831160916 | 88 | 53 | 1.0 | 2.0 | 0.00 | 0.00 | 0.00 | 73 | 1015.4 |
| 20260831155915 | 89 | 108 | 1.0 | 2.0 | 0.00 | 0.00 | 0.00 | 71 | 1015.7 |
| 20260831154843 | 87 | 338 | 0.0 | 2.0 | 0.00 | 0.00 | 0.00 | 76 | 1015.7 |
| 20260831153842 | 87 | 69 | 1.0 | 2.0 | 0.00 | 0.00 | 0.00 | 75 | 1016.1 |
| 20260831152841 | 87 | 320 | 0.0 | 3.0 | 0.00 | 0.00 | 0.00 | 74 | 1015.7 |
| 20260831151738 | 87 | 19 | 0.0 | 3.0 | 0.00 | 0.00 | 0.00 | 78 | 1015.7 |
| 20260831150738 | 88 | 338 | 0.0 | 2.0 | 0.00 | 0.00 | 0.00 | 79 | 1015.7 |
| 20260831145737 | 88 | 69 | 1.0 | 2.0 | 0.00 | 0.00 | 0.00 | 78 | 1015.7 |
| 20260831144705 | 87 | 40 | 0.0 | 4.0 | 0.00 | 0.00 | 0.00 | 81 | 1015.7 |
| 20260831143704 | 87 | 26 | 3.0 | 4.0 | 0.00 | 0.00 | 0.00 | 80 | 1015.7 |
| 20260831142703 | 86 | 304 | 0.0 | 1.0 | 0.00 | 0.00 | 0.00 | 85 | 1015.4 |
| 20260831141703 | 86 | 315 | 0.0 | 2.0 | 0.00 | 0.00 | 0.00 | 85 | 1015.4 |
| 20260831140702 | 86 | 315 | 1.0 | 3.0 | 0.00 | 0.00 | 0.00 | 86 | 1015.4 |
| 20260831135630 | 85 | 311 | 1.0 | 3.0 | 0.00 | 0.00 | 0.00 | 86 | 1015.4 |
| 20260831134629 | 85 | 41 | 1.0 | 2.0 | 0.00 | 0.00 | 0.00 | 88 | 1015.4 |
| 20260831133628 | 84 | 63 | 1.0 | 2.0 | 0.00 | 0.00 | 0.00 | 89 | 1015.4 |
| 20260831132556 | 83 | 15 | 1.0 | 3.0 | 0.00 | 0.00 | 0.00 | 91 | 1015.4 |
| 20260831131554 | 82 | 133 | 1.0 | 3.0 | 0.00 | 0.00 | 0.00 | 93 | 1015.0 |
| 20260831130553 | 82 | 23 | 2.0 | 3.0 | 0.00 | 0.00 | 0.00 | 93 | 1015.0 |
| 20260831125552 | 81 | 332 | 0.0 | 3.0 | 0.00 | 0.00 | 0.00 | 95 | 1015.0 |
| 20260831124551 | 79 | 33 | 1.0 | 3.0 | 0.00 | 0.00 | 0.00 | 96 | 1015.0 |
| 20260831123551 | 78 | 25 | 2.0 | 3.0 | 0.00 | 0.00 | 0.00 | 99 | 1015.0 |
| 20260831122550 | 78 | 54 | 1.0 | 1.0 | 0.00 | 0.00 | 0.00 | 100 | 1015.0 |
| 20260831121549 | 77 | 11 | 0.0 | 1.0 | 0.00 | 0.00 | 0.00 | 100 | 1014.7 |
| 20260831120520 | 76 | 11 | 0.0 | 1.0 | 0.00 | 0.00 | 0.00 | 100 | 1014.7 |
| 20260831114619 | 74 | 10 | 0.0 | 0.0 | 0.00 | 0.00 | 0.00 | 99 | 1014.7 |
| 20260831113619 | 74 | 10 | 0.0 | 0.0 | 0.00 | 0.00 | 0.00 | 99 | 1014.4 |
| 20260831112618 | 74 | 10 | 0.0 | 0.0 | 0.00 | 0.00 | 0.00 | 99 | 1014.4 |
| 20260831111617 | 74 | 11 | 0.0 | 0.0 | 0.00 | 0.00 | 0.00 | 99 | 1014.4 |
| 20260831110616 | 74 | 11 | 0.0 | 0.0 | 0.00 | 0.00 | 0.00 | 99 | 1014.4 |
| 20260831105616 | 74 | 11 | 0.0 | 0.0 | 0.00 | 0.00 | 0.00 | 99 | 1014.0 |
| 20260831104615 | 74 | 10 | 0.0 | 0.0 | 0.00 | 0.00 | 0.00 | 99 | 1014.0 |
| 20260831103614 | 74 | 11 | 0.0 | 0.0 | 0.00 | 0.00 | 0.00 | 99 | 1013.7 |
| 20260831102613 | 74 | 11 | 0.0 | 0.0 | 0.00 | 0.00 | 0.00 | 99 | 1013.7 |
| 20260831101541 | 74 | 10 | 0.0 | 0.0 | 0.00 | 0.00 | 0.00 | 99 | 1013.7 |
| 20260831100540 | 74 | 11 | 0.0 | 0.0 | 0.00 | 0.00 | 0.00 | 99 | 1013.7 |
| 20260831095539 | 74 | 10 | 0.0 | 0.0 | 0.00 | 0.00 | 0.00 | 99 | 1013.7 |
| 20260831094539 | 74 | 10 | 0.0 | 0.0 | 0.00 | 0.00 | 0.00 | 99 | 1013.7 |
| 20260831093538 | 74 | 11 | 0.0 | 0.0 | 0.00 | 0.00 | 0.00 | 99 | 1013.3 |
| 20260831092537 | 74 | 11 | 0.0 | 0.0 | 0.00 | 0.00 | 0.00 | 99 | 1013.7 |
| 20260831091536 | 74 | 11 | 0.0 | 0.0 | 0.00 | 0.00 | 0.00 | 99 | 1013.7 |
| 20260831090535 | 74 | 10 | 0.0 | 0.0 | 0.00 | 0.00 | 0.00 | 99 | 1013.7 |
| 20260831085504 | 74 | 11 | 0.0 | 0.0 | 0.00 | 0.00 | 0.00 | 99 | 1013.3 |
| 20260831084503 | 74 | 10 | 0.0 | 0.0 | 0.00 | 0.00 | 0.00 | 99 | 1013.7 |
| 20260831083430 | 74 | 11 | 0.0 | 0.0 | 0.00 | 0.00 | 0.00 | 99 | 1013.7 |
| 20260831082430 | 74 | 10 | 0.0 | 0.0 | 0.00 | 0.00 | 0.00 | 99 | 1013.7 |
| 20260831081429 | 74 | 11 | 0.0 | 0.0 | 0.00 | 0.00 | 0.00 | 98 | 1013.7 |
| 20260831080428 | 74 | 10 | 0.0 | 0.0 | 0.00 | 0.00 | 0.00 | 98 | 1013.7 |
| 20260831075427 | 74 | 11 | 0.0 | 0.0 | 0.00 | 0.00 | 0.00 | 98 | 1014.0 |
| 20260831074426 | 74 | 10 | 0.0 | 0.0 | 0.00 | 0.00 | 0.00 | 98 | 1014.0 |
| 20260831073252 | 74 | 11 | 0.0 | 0.0 | 0.00 | 0.00 | 0.00 | 98 | 1014.0 |
| 20260831072252 | 75 | 10 | 0.0 | 0.0 | 0.00 | 0.00 | 0.00 | 98 | 1014.0 |
| 20260831071251 | 75 | 10 | 0.0 | 0.0 | 0.00 | 0.00 | 0.00 | 98 | 1014.0 |
| 20260831070219 | 75 | 10 | 0.0 | 0.0 | 0.00 | 0.00 | 0.00 | 98 | 1014.0 |
| 20260831065218 | 75 | 10 | 0.0 | 0.0 | 0.00 | 0.00 | 0.00 | 98 | 1014.4 |
| 20260831064043 | 75 | 10 | 0.0 | 0.0 | 0.00 | 0.00 | 0.00 | 98 | 1014.4 |
| 20260831063043 | 76 | 11 | 0.0 | 0.0 | 0.00 | 0.00 | 0.00 | 98 | 1014.4 |
| 20260831062042 | 75 | 11 | 0.0 | 0.0 | 0.00 | 0.00 | 0.00 | 98 | 1014.4 |
| 20260831061010 | 75 | 11 | 0.0 | 0.0 | 0.00 | 0.00 | 0.00 | 98 | 1014.4 |
| 20260831060009 | 76 | 11 | 0.0 | 0.0 | 0.00 | 0.00 | 0.00 | 98 | 1014.7 |
| 20260831055009 | 76 | 10 | 0.0 | 0.0 | 0.00 | 0.00 | 0.00 | 98 | 1014.7 |
| 20260831054008 | 76 | 11 | 0.0 | 0.0 | 0.00 | 0.00 | 0.00 | 98 | 1014.7 |
| 20260831052936 | 76 | 11 | 0.0 | 0.0 | 0.00 | 0.00 | 0.00 | 98 | 1014.7 |